Wind_Speed
5 10 12 16 20 22 20 19 15 12 13 15 16 18 19 19 19 18 20 20 18 17 18 19 20 21 22 24 27 30 31 34 39 36 41 44 45 45 46 44 40 40 40
5 9 12 16 21 19 19 16 13 13 16 18 19 19 18 17 18 19 19 16 15 15 16 17 18 21 23 25 26 27 31 35 39 42 46 45 46 48 48 44 41 35 32
7 9 13 19 18 19 15 14 12 15 18 18 19 17 17 17 17 16 14 13 13 13 15 16 18 20 23 24 27 31 33 37 40 44 45 46 48 46 42 38 37 32 27
8 10 16 19 20 17 12 10 12 16 17 17 16 16 16 16 14 12 10 11 11 13 17 19 21 23 25 27 30 33 37 40 44 46 46 45 44 43 38 38 35 26 25
9 12 17 16 11 7 8 10 13 15 14 14 14 14 13 12 10 8 9 10 13 17 19 21 24 27 29 31 34 36 40 44 47 52 47 45 44 42 44 42 37 31 21
11 12 12 10 7 7 8 11 12 12 11 11 11 10 8 6 5 7 8 10 14 17 18 20 22 24 28 31 35 39 44 47 49 54 47 44 43 46 42 40 38 31 27
9 7 8 6 5 6 8 10 10 9 10 9 9 7 5 5 6 7 9 13 15 16 17 18 20 23 25 28 31 36 39 42 48 50 45 43 43 42 41 39 40 31 32
6 5 4 3 4 6 8 9 8 8 9 8 7 6 5 4 5 7 9 12 13 15 15 18 21 24 25 26 29 34 38 41 44 47 46 39 39 39 37 42 39 37 30
4 3 2 2 5 7 9 9 7 8 8 7 5 3 3 2 4 6 10 12 13 14 16 19 23 26 25 26 30 34 35 35 38 43 46 39 42 41 38 38 37 40 30
2 1 2 4 6 8 9 8 8 7 7 6 4 2 2 3 6 9 11 11 14 17 19 21 23 26 30 29 32 36 36 34 34 37 40 40 39 34 39 39 37 39 37
1 2 3 5 6 8 9 8 7 7 7 5 3 3 5 6 8 11 11 11 13 15 16 19 23 27 35 32 34 37 37 32 31 34 38 37 34 35 33 34 38 39 34
2 3 5 6 8 9 9 8 6 6 6 5 4 5 8 7 8 11 13 14 16 18 20 21 25 28 33 33 35 35 34 27 26 29 33 36 35 33 37 34 33 34 36
5 6 6 7 8 9 10 9 7 5 6 6 6 8 10 9 10 10 14 17 19 20 20 23 25 29 32 34 31 30 30 24 23 26 29 34 35 35 29 29 29 29 30
7 7 7 7 9 10 10 10 8 7 7 7 8 10 11 11 12 12 15 17 21 24 23 23 24 28 32 30 26 27 27 26 25 26 27 29 30 28 29 29 27 22 23
6 7 7 7 9 10 10 10 10 8 8 9 10 11 12 13 14 15 17 20 20 23 24 23 22 22 24 24 24 25 25 26 25 25 24 24 25 27 27 25 29 29 28
8 8 8 8 10 10 10 10 9 9 9 10 11 12 13 14 17 17 17 20 21 20 18 19 20 19 20 20 20 22 23 24 25 26 27 26 24 25 25 25 25 24 27
10 9 9 9 10 11 10 11 10 10 9 9 11 12 14 14 18 19 18 18 18 16 15 17 18 18 18 18 19 19 21 23 25 27 28 27 26 24 21 22 22 20 23
12 9 9 8 9 11 12 11 11 10 10 10 11 13 14 14 16 18 16 15 16 14 14 16 16 16 16 15 16 17 20 22 24 25 27 27 26 26 25 21 21 22 23
9 8 8 9 9 11 13 13 13 11 10 10 11 13 13 14 15 14 13 15 16 15 16 16 13 13 13 14 15 18 20 22 24 26 26 27 27 27 27 25 21 18 18
7 7 8 10 11 12 13 15 14 14 12 10 11 12 10 9 8 12 14 16 16 14 16 16 13 12 11 11 13 15 17 19 21 23 24 25 25 25 25 25 23 22 18
6 7 8 11 12 12 13 14 14 13 13 11 11 9 7 8 8 11 17 19 16 14 12 11 10 9 9 11 13 14 16 18 20 22 23 24 24 24 24 23 23 21 20
10 11 12 13 13 13 13 14 14 13 12 12 10 9 8 8 11 12 17 19 14 13 10 8 7 6 7 9 11 13 16 18 20 22 24 25 26 26 25 23 22 22 19
13 15 16 17 16 15 15 15 14 13 13 12 11 8 8 11 13 19 20 13 13 10 8 7 5 6 7 9 10 13 15 18 20 22 24 27 27 26 25 24 23 22 21
22 23 25 21 19 17 16 16 15 14 13 12 10 8 11 16 12 14 13 13 12 9 8 6 6 7 9 11 14 16 18 20 23 24 25 26 27 25 24 23 22 21 21
29 29 24 19 20 19 17 16 14 14 13 9 9 9 9 11 13 13 15 14 12 9 7 7 8 9 11 13 15 17 20 21 23 25 26 26 26 24 23 22 22 22 21
27 24 21 19 19 20 19 16 15 14 12 11 11 13 14 13 13 14 13 12 9 7 7 8 9 11 13 14 15 17 19 21 23 25 26 25 24 23 23 22 22 21 22
Wind_Direction
334 338 339 339 338 335 337 335 330 340 342 346 344 347 341 339 338 341 342 344 351 355 355 359 356 350 352 350 349 344 341 343 343 349 342 337 333 330 327 325 322 315 309
321 328 319 326 329 331 327 327 329 339 342 341 345 342 340 346 348 346 348 360 360 5 5 359 358 356 355 352 350 349 350 350 349 348 344 344 341 335 332 331 330 328 323
273 303 321 325 328 326 324 325 332 338 339 339 345 349 352 348 351 357 4 11 17 12 2 1 3 1 359 358 358 357 358 359 354 353 350 347 344 341 340 339 336 340 338
285 312 320 324 327 317 314 324 332 332 337 347 356 349 351 356 358 8 23 25 22 12 7 8 4 3 358 1 1 1 1 0 359 356 353 352 353 352 349 346 352 347 341
285 310 317 325 336 347 328 335 327 332 344 355 349 347 355 3 6 26 30 23 22 20 14 9 4 360 360 3 1 2 4 4 2 359 357 357 356 358 360 358 356 1 356
281 304 311 319 331 333 333 325 325 338 351 348 348 357 6 23 44 38 26 22 21 18 16 10 4 1 1 2 2 2 3 2 2 2 359 360 359 359 2 359 358 2 5
275 286 290 287 301 320 325 321 328 346 352 352 2 22 54 75 55 37 25 16 18 16 12 4 1 360 357 358 0 2 2 1 2 2 0 2 5 6 5 9 13 13 2
245 247 254 277 313 328 326 327 334 355 355 359 21 59 74 62 43 25 15 9 12 9 2 358 357 356 354 354 359 0 0 358 1 2 2 3 7 10 7 18 10 10 7
195 201 248 319 338 338 335 329 343 358 359 356 35 66 69 1 18 5 7 5 0 358 353 355 357 353 348 351 355 358 356 356 0 2 7 9 4 14 13 19 14 9 15
145 36 355 345 342 339 337 336 344 344 355 346 23 37 3 314 352 350 360 353 348 350 350 350 351 350 346 346 352 353 353 353 2 4 8 9 9 14 16 18 9 29 27
277 306 313 324 338 339 332 334 335 346 341 329 335 334 305 320 339 334 344 337 334 335 337 339 342 344 347 348 350 350 351 355 360 0 5 10 11 9 19 23 33 31 33
312 293 302 320 335 335 332 329 330 335 323 309 318 309 297 309 319 324 327 325 324 322 325 333 342 346 349 349 348 348 351 353 356 357 1 11 18 18 19 26 34 29 26
295 309 316 316 325 328 326 324 318 314 311 304 301 297 293 304 307 315 320 321 324 323 327 336 342 344 345 345 344 349 351 354 353 354 0 12 17 16 16 13 25 34 25
304 291 296 310 314 318 319 316 310 305 301 296 298 297 299 308 307 313 316 317 327 332 330 333 336 342 344 346 349 351 354 357 351 355 358 11 14 15 15 17 17 20 18
288 282 289 298 302 308 311 312 308 303 301 305 299 299 299 306 304 307 312 315 327 329 326 326 335 340 348 353 353 356 357 1 356 354 355 4 7 6 16 21 16 25 20
282 280 286 294 300 307 312 308 308 311 308 303 302 301 300 302 302 305 312 315 321 327 326 332 341 347 350 354 1 3 3 5 2 2 359 358 1 3 8 19 16 19 22
285 282 287 296 306 309 313 316 320 317 308 304 304 299 296 304 302 301 306 309 314 326 338 342 345 346 351 356 360 3 4 4 5 4 2 0 359 356 1 11 27 22 19
271 274 285 295 308 316 319 323 325 319 311 305 302 295 297 299 302 306 308 322 326 334 334 338 342 346 351 357 5 8 9 9 7 6 4 2 1 360 1 4 10 16 25
260 272 285 297 311 319 323 323 324 321 315 307 299 296 300 301 305 317 321 309 320 327 333 337 339 346 353 360 6 8 10 9 9 8 7 5 5 4 2 2 3 3 9
263 274 290 304 315 321 323 322 323 325 316 308 301 295 294 303 304 300 316 318 324 319 330 333 337 346 354 4 6 9 10 9 7 6 6 7 8 6 5 3 2 359 357
277 287 299 303 310 316 319 319 320 322 320 312 302 291 307 336 319 295 298 308 320 319 326 328 332 341 352 357 358 1 2 2 2 2 4 5 7 8 9 7 5 3 357
286 291 293 298 304 310 313 313 316 317 311 302 294 284 297 310 310 308 302 315 314 316 319 320 325 332 345 349 349 351 353 354 355 356 359 2 4 4 7 10 8 6 5
294 296 296 296 297 298 300 302 305 308 303 295 290 293 292 278 283 294 308 325 319 313 309 312 317 323 334 339 341 346 348 348 349 353 356 358 360 0 1 3 6 7 8
290 293 294 289 290 291 292 294 300 298 289 282 273 265 263 280 303 314 313 322 322 316 312 314 321 328 333 338 341 344 348 350 351 353 354 354 355 356 357 357 357 1 5
277 284 278 278 286 282 282 286 287 281 280 271 278 287 280 281 284 300 307 312 313 308 308 313 322 330 335 338 342 347 348 348 348 348 348 349 350 351 351 352 351 350 351
272 272 273 272 272 273 273 272 269 264 264 263 259 265 271 276 277 289 306 312 303 297 301 313 324 331 336 340 342 341 341 342 342 342 342 344 344 344 345 346 346 345 345
Height
3142 3142 3143 3143 3143 3141 3139 3138 3136 3134 3132 3130 3128 3123 3120 3117 3114 3110 3109 3107 3105 3102 3099 3097 3095 3092 3087 3082 3076 3070 3063 3056 3048 3043 3033 3023 3013 3001 2991 2982 2974 2965 2958
3140 3141 3142 3141 3140 3139 3138 3135 3132 3131 3129 3126 3122 3120 3118 3114 3111 3108 3107 3105 3104 3101 3100 3097 3095 3091 3086 3081 3076 3069 3062 3054 3045 3037 3027 3016 3005 2994 2983 2973 2965 2957 2948
3138 3138 3138 3137 3135 3134 3132 3131 3128 3127 3126 3123 3119 3117 3115 3112 3108 3107 3107 3106 3105 3103 3101 3099 3095 3090 3085 3080 3073 3067 3060 3052 3044 3033 3022 3013 3002 2990 2979 2971 2961 2951 2946
3134 3134 3134 3134 3132 3128 3129 3127 3126 3125 3123 3120 3117 3116 3113 3111 3110 3109 3108 3107 3107 3105 3102 3098 3094 3089 3084 3079 3071 3065 3057 3049 3040 3030 3020 3010 2998 2987 2977 2966 2958 2949 2944
3132 3131 3131 3131 3130 3128 3127 3126 3125 3124 3121 3119 3117 3115 3112 3111 3111 3111 3111 3110 3107 3103 3101 3097 3092 3087 3082 3075 3069 3062 3054 3046 3036 3027 3016 3006 2996 2987 2973 2963 2956 2948 2942
3130 3130 3129 3128 3128 3127 3126 3125 3124 3122 3120 3119 3117 3114 3112 3112 3113 3112 3111 3109 3105 3102 3100 3097 3093 3088 3082 3075 3067 3058 3050 3043 3035 3025 3016 3006 2996 2985 2976 2966 2956 2948 2942
3128 3129 3129 3128 3127 3126 3125 3124 3122 3120 3119 3117 3116 3114 3113 3114 3112 3111 3111 3108 3105 3103 3100 3098 3094 3089 3083 3077 3070 3063 3055 3047 3037 3027 3018 3006 2996 2987 2979 2969 2959 2952 2946
3127 3127 3127 3126 3125 3124 3123 3122 3121 3119 3118 3116 3114 3112 3112 3113 3113 3112 3110 3108 3105 3103 3101 3098 3093 3089 3083 3078 3072 3064 3055 3047 3039 3029 3018 3009 3001 2993 2984 2972 2964 2958 2952
3123 3124 3124 3123 3122 3121 3120 3120 3119 3117 3115 3115 3112 3111 3111 3113 3112 3111 3108 3106 3105 3103 3100 3096 3092 3088 3083 3077 3071 3064 3057 3051 3042 3033 3021 3012 3004 2996 2987 2978 2970 2960 2951
3120 3121 3121 3120 3120 3120 3119 3117 3116 3115 3114 3114 3111 3111 3111 3112 3110 3109 3106 3105 3104 3102 3098 3095 3091 3087 3081 3075 3068 3061 3055 3048 3042 3036 3028 3018 3009 3000 2991 2981 2974 2965 2957
3119 3119 3119 3119 3118 3118 3118 3116 3114 3113 3113 3113 3112 3111 3112 3111 3109 3108 3105 3104 3102 3100 3097 3094 3089 3084 3079 3071 3065 3059 3052 3045 3040 3035 3029 3021 3012 3004 2995 2986 2979 2971 2966
3116 3117 3117 3117 3116 3116 3115 3114 3112 3111 3112 3112 3110 3110 3110 3108 3107 3107 3105 3103 3101 3098 3095 3091 3086 3081 3076 3069 3064 3057 3051 3045 3041 3037 3031 3023 3013 3006 2999 2991 2985 2979 2973
3114 3114 3114 3114 3114 3114 3113 3112 3111 3110 3110 3110 3108 3108 3108 3106 3105 3103 3102 3101 3098 3095 3091 3087 3083 3078 3074 3068 3063 3057 3052 3047 3042 3038 3031 3023 3014 3009 3003 2998 2991 2985 2980
3112 3112 3112 3113 3112 3112 3111 3110 3109 3108 3108 3107 3106 3106 3106 3105 3103 3101 3099 3097 3095 3092 3089 3085 3081 3076 3071 3067 3061 3056 3052 3047 3042 3037 3031 3025 3019 3014 3008 3000 2994 2990 2985
3111 3111 3111 3111 3111 3109 3109 3107 3106 3105 3105 3103 3103 3103 3103 3101 3100 3098 3096 3094 3091 3089 3087 3083 3080 3076 3071 3065 3061 3056 3052 3047 3042 3037 3032 3028 3022 3016 3010 3003 2998 2992 2986
3109 3109 3109 3108 3108 3106 3105 3104 3103 3101 3100 3100 3100 3100 3100 3098 3098 3095 3092 3092 3089 3086 3084 3081 3078 3073 3069 3065 3060 3056 3052 3047 3043 3038 3033 3028 3023 3017 3012 3007 3002 2996 2990
3106 3106 3106 3105 3104 3103 3102 3101 3099 3098 3098 3097 3097 3096 3096 3095 3095 3092 3089 3087 3085 3084 3081 3078 3075 3072 3068 3064 3060 3056 3052 3048 3042 3038 3033 3029 3024 3018 3013 3008 3004 2999 2994
3103 3103 3103 3102 3101 3100 3099 3097 3096 3095 3095 3095 3094 3093 3093 3091 3090 3088 3086 3084 3082 3080 3078 3075 3073 3070 3067 3064 3060 3056 3052 3048 3044 3038 3033 3029 3024 3019 3014 3009 3005 3000 2997
3099 3099 3099 3099 3098 3097 3097 3095 3094 3093 3092 3091 3091 3090 3089 3088 3086 3085 3084 3082 3080 3078 3076 3073 3070 3068 3065 3063 3060 3056 3052 3048 3043 3038 3034 3028 3023 3018 3014 3010 3005 3002 2999
3096 3097 3097 3096 3096 3095 3094 3093 3092 3090 3089 3088 3087 3087 3085 3084 3083 3081 3079 3078 3077 3075 3074 3071 3069 3067 3064 3061 3059 3056 3052 3049 3045 3040 3035 3029 3024 3019 3013 3009 3006 3003 2999
3093 3093 3093 3093 3092 3092 3092 3091 3090 3088 3086 3084 3084 3083 3082 3081 3080 3079 3077 3075 3074 3072 3070 3068 3067 3065 3064 3062 3059 3056 3053 3049 3045 3041 3036 3031 3025 3019 3014 3008 3004 3002 2999
3089 3090 3090 3089 3089 3088 3087 3087 3086 3084 3083 3082 3081 3080 3078 3078 3077 3076 3074 3073 3071 3070 3068 3066 3065 3064 3062 3060 3058 3056 3052 3048 3044 3040 3036 3030 3025 3020 3014 3010 3005 3001 2998
3085 3085 3085 3085 3085 3084 3083 3083 3082 3080 3079 3079 3078 3077 3077 3076 3075 3073 3072 3070 3068 3066 3065 3064 3063 3062 3061 3059 3056 3054 3050 3047 3044 3040 3035 3030 3025 3020 3015 3011 3006 3002 2998
3081 3081 3081 3081 3080 3079 3079 3078 3077 3077 3077 3076 3075 3076 3075 3073 3072 3070 3069 3068 3067 3065 3064 3063 3062 3060 3058 3057 3055 3052 3049 3046 3042 3038 3034 3030 3025 3021 3016 3012 3008 3003 2999
3074 3074 3074 3074 3075 3074 3073 3073 3073 3073 3073 3072 3072 3072 3071 3070 3068 3067 3067 3066 3064 3063 3062 3061 3060 3059 3057 3055 3053 3050 3047 3045 3041 3036 3032 3028 3024 3019 3016 3012 3008 3004 2999
3065 3066 3066 3067 3068 3068 3068 3068 3069 3069 3069 3069 3068 3068 3067 3066 3065 3065 3064 3062 3061 3060 3060 3060 3059 3057 3056 3053 3051 3048 3045 3041 3038 3034 3030 3026 3022 3018 3014 3010 3006 3002 2998